• In Uzbekistan
  • List of Countries
  • For 7 days
  • Water Temperature
  • Satellite Maps
  • Weather Map
  • Weather Widgets
  • user-avatar
    Login

    Hourly Weather Vuotso

    Today, 26 May, Saturday

    Time Temperature Precipitation Wind Pressure Humidity
    00:00 +12°C° 0 mm 5 mps 740 mmHg 49%
    01:00 +10°C° 0 mm 5 mps 741 mmHg 53%
    02:00 +10°C° 0 mm 4 mps 741 mmHg 60%
    03:00 +10°C° 0 mm 4 mps 741 mmHg 58%
    04:00 +8°C° 0 mm 5 mps 741 mmHg 56%
    05:00 +8°C° 0 mm 5 mps 742 mmHg 53%
    06:00 +9°C° 0 mm 5 mps 742 mmHg 50%
    07:00 +9°C° 0 mm 5 mps 742 mmHg 46%
    08:00 +9°C° 0 mm 6 mps 742 mmHg 43%
    09:00 +9°C° 0 mm 6 mps 742 mmHg 41%
    10:00 +9°C° 0 mm 7 mps 743 mmHg 39%
    11:00 +10°C° 0 mm 7 mps 743 mmHg 37%
    12:00 +10°C° 0 mm 8 mps 743 mmHg 36%
    13:00 +10°C° 0 mm 8 mps 743 mmHg 35%
    14:00 +10°C° 0 mm 8 mps 743 mmHg 35%
    15:00 +10°C° 0 mm 8 mps 743 mmHg 35%
    16:00 +10°C° 0 mm 8 mps 743 mmHg 36%
    17:00 +10°C° 0 mm 8 mps 744 mmHg 36%
    18:00 +9°C° 0 mm 7 mps 744 mmHg 39%
    19:00 +8°C° 0 mm 7 mps 744 mmHg 41%
    20:00 +6°C° 0 mm 7 mps 744 mmHg 43%
    21:00 +5°C° 0 mm 6 mps 744 mmHg 46%
    22:00 +4°C° 0 mm 6 mps 745 mmHg 50%
    23:00 +3°C° 0 mm 5 mps 745 mmHg 53%

    Tomorrow, 27 May, Sunday

    Time Temperature Precipitation Wind Pressure Humidity
    00:00 +3°C° 0 mm 5 mps 745 mmHg 56%
    01:00 +2°C° 0 mm 5 mps 745 mmHg 59%
    02:00 +3°C° 0 mm 4 mps 746 mmHg 62%
    03:00 +2°C° 0 mm 5 mps 746 mmHg 61%
    04:00 +2°C° 0 mm 5 mps 746 mmHg 61%
    05:00 +2°C° 0 mm 6 mps 746 mmHg 60%
    06:00 +3°C° 0 mm 6 mps 747 mmHg 58%
    07:00 +3°C° 0 mm 5 mps 747 mmHg 56%
    08:00 +5°C° 0 mm 5 mps 747 mmHg 54%
    09:00 +5°C° 0 mm 5 mps 747 mmHg 51%
    10:00 +6°C° 0 mm 5 mps 747 mmHg 48%
    11:00 +7°C° 0 mm 4 mps 748 mmHg 45%
    12:00 +8°C° 0 mm 4 mps 748 mmHg 42%
    13:00 +10°C° 0 mm 4 mps 747 mmHg 39%
    14:00 +11°C° 0 mm 3 mps 747 mmHg 36%
    15:00 +11°C° 0 mm 3 mps 747 mmHg 37%
    16:00 +11°C° 0 mm 3 mps 747 mmHg 38%
    17:00 +11°C° 0 mm 3 mps 746 mmHg 40%
    18:00 +11°C° 0 mm 3 mps 746 mmHg 45%
    19:00 +10°C° 0 mm 3 mps 746 mmHg 50%
    20:00 +10°C° 0 mm 3 mps 746 mmHg 56%
    21:00 +9°C° 0 mm 2 mps 746 mmHg 58%
    22:00 +9°C° 0 mm 2 mps 745 mmHg 60%
    23:00 +9°C° 0 mm 2 mps 745 mmHg 63%

    Day after tomorrow, 28 May, Monday

    Time Temperature Precipitation Wind Pressure Humidity
    00:00 +8°C° 0 mm 3 mps 745 mmHg 65%
    01:00 +8°C° 0 mm 3 mps 745 mmHg 68%
    02:00 +7°C° 0 mm 3 mps 745 mmHg 71%
    03:00 +7°C° 0.1 mm 3 mps 745 mmHg 71%
    04:00 +8°C° 0.1 mm 3 mps 745 mmHg 72%
    05:00 +9°C° 0.1 mm 3 mps 745 mmHg 72%
    06:00 +9°C° 0.1 mm 3 mps 745 mmHg 73%
    07:00 +9°C° 0.1 mm 3 mps 745 mmHg 74%
    08:00 +10°C° 0.1 mm 2 mps 745 mmHg 75%
    09:00 +12°C° 0 mm 3 mps 745 mmHg 68%
    10:00 +14°C° 0 mm 3 mps 744 mmHg 61%
    11:00 +17°C° 0 mm 3 mps 744 mmHg 54%
    12:00 +18°C° 0 mm 3 mps 744 mmHg 50%
    13:00 +19°C° 0 mm 3 mps 744 mmHg 45%
    14:00 +21°C° 0 mm 3 mps 743 mmHg 40%
    15:00 +21°C° 0 mm 3 mps 743 mmHg 37%
    16:00 +21°C° 0 mm 3 mps 743 mmHg 35%
    17:00 +21°C° 0 mm 3 mps 742 mmHg 32%
    18:00 +20°C° 0 mm 3 mps 742 mmHg 36%
    19:00 +19°C° 0 mm 2 mps 742 mmHg 40%
    20:00 +19°C° 0 mm 1 mps 742 mmHg 44%
    21:00 +18°C° 0 mm 1 mps 741 mmHg 47%
    22:00 +16°C° 0 mm 1 mps 741 mmHg 49%
    23:00 +15°C° 0 mm 1 mps 741 mmHg 52%

    29 May, Tuesday

    Time Temperature Precipitation Wind Pressure Humidity
    00:00 +14°C° 0 mm 1 mps 741 mmHg 54%
    01:00 +13°C° 0 mm 1 mps 741 mmHg 56%
    02:00 +12°C° 0 mm 1 mps 741 mmHg 58%
    03:00 +13°C° 0 mm 1 mps 741 mmHg 57%
    04:00 +13°C° 0 mm 1 mps 740 mmHg 56%
    05:00 +14°C° 0 mm 1 mps 740 mmHg 56%
    06:00 +15°C° 0 mm 1 mps 740 mmHg 52%
    07:00 +16°C° 0 mm 1 mps 740 mmHg 49%
    08:00 +18°C° 0 mm 1 mps 739 mmHg 46%
    09:00 +19°C° 0 mm 1 mps 739 mmHg 44%
    10:00 +20°C° 0 mm 1 mps 739 mmHg 42%
    11:00 +21°C° 0 mm 1 mps 739 mmHg 40%
    12:00 +20°C° 0 mm 2 mps 738 mmHg 40%
    13:00 +20°C° 0 mm 2 mps 738 mmHg 40%
    14:00 +21°C° 0 mm 3 mps 738 mmHg 40%
    15:00 +19°C° 0.4 mm 3 mps 737 mmHg 48%
    16:00 +18°C° 0.4 mm 3 mps 737 mmHg 57%
    17:00 +17°C° 0.4 mm 3 mps 737 mmHg 65%
    18:00 +15°C° 0.6 mm 4 mps 737 mmHg 68%
    19:00 +14°C° 0.6 mm 4 mps 737 mmHg 71%
    20:00 +14°C° 0.6 mm 4 mps 737 mmHg 75%
    21:00 +12°C° 0.4 mm 5 mps 737 mmHg 76%
    22:00 +10°C° 0.4 mm 5 mps 738 mmHg 78%
    23:00 +9°C° 0.4 mm 6 mps 738 mmHg 80%

    30 May, Wednesday

    Time Temperature Precipitation Wind Pressure Humidity
    00:00 +9°C° 0.1 mm 6 mps 739 mmHg 81%
    01:00 +8°C° 0.1 mm 6 mps 739 mmHg 81%
    02:00 +8°C° 0.1 mm 6 mps 740 mmHg 82%
    03:00 +8°C° 0 mm 6 mps 740 mmHg 80%
    04:00 +8°C° 0 mm 5 mps 741 mmHg 79%
    05:00 +8°C° 0 mm 5 mps 742 mmHg 78%
    06:00 +9°C° 0 mm 5 mps 742 mmHg 74%
    07:00 +10°C° 0 mm 4 mps 742 mmHg 70%
    08:00 +11°C° 0 mm 4 mps 743 mmHg 66%
    09:00 +12°C° 0 mm 4 mps 743 mmHg 64%
    10:00 +12°C° 0 mm 4 mps 743 mmHg 61%
    11:00 +12°C° 0 mm 4 mps 744 mmHg 59%
    12:00 +12°C° 0 mm 4 mps 744 mmHg 58%
    13:00 +12°C° 0 mm 4 mps 744 mmHg 58%
    14:00 +12°C° 0 mm 4 mps 744 mmHg 57%
    15:00 +13°C° 0 mm 4 mps 744 mmHg 54%
    16:00 +13°C° 0 mm 4 mps 744 mmHg 51%
    17:00 +13°C° 0 mm 4 mps 744 mmHg 49%
    18:00 +13°C° 0 mm 4 mps 744 mmHg 49%
    19:00 +12°C° 0 mm 4 mps 744 mmHg 49%
    20:00 +11°C° 0 mm 4 mps 744 mmHg 50%
    21:00 +10°C° 0 mm 3 mps 745 mmHg 54%
    22:00 +8°C° 0 mm 2 mps 745 mmHg 59%
    23:00 +7°C° 0 mm 2 mps 745 mmHg 64%

    31 May, Thursday

    Time Temperature Precipitation Wind Pressure Humidity
    00:00 +7°C° 0 mm 1 mps 745 mmHg 66%
    01:00 +7°C° 0 mm 1 mps 745 mmHg 68%
    02:00 +6°C° 0 mm 1 mps 745 mmHg 70%
    03:00 +7°C° 0 mm 1 mps 745 mmHg 66%
    04:00 +7°C° 0 mm 1 mps 745 mmHg 63%
    05:00 +8°C° 0 mm 1 mps 745 mmHg 59%
    06:00 +10°C° 0 mm 1 mps 745 mmHg 53%
    07:00 +11°C° 0 mm 1 mps 745 mmHg 47%
    08:00 +13°C° 0 mm 1 mps 744 mmHg 40%
    09:00 +14°C° 0 mm 1 mps 744 mmHg 38%
    10:00 +16°C° 0 mm 1 mps 744 mmHg 35%
    11:00 +18°C° 0 mm 1 mps 743 mmHg 33%
    12:00 +19°C° 0 mm 1 mps 743 mmHg 33%
    13:00 +19°C° 0 mm 2 mps 742 mmHg 32%
    14:00 +20°C° 0 mm 2 mps 742 mmHg 32%
    15:00 +21°C° 0 mm 2 mps 741 mmHg 32%
    16:00 +21°C° 0 mm 2 mps 741 mmHg 32%
    17:00 +23°C° 0 mm 2 mps 740 mmHg 33%
    18:00 +22°C° 0 mm 3 mps 740 mmHg 36%
    19:00 +21°C° 0 mm 3 mps 739 mmHg 39%
    20:00 +21°C° 0 mm 3 mps 739 mmHg 42%
    21:00 +19°C° 0 mm 3 mps 739 mmHg 46%
    22:00 +18°C° 0 mm 4 mps 739 mmHg 51%
    23:00 +15°C° 0 mm 4 mps 739 mmHg 55%
    Show more